CZ-6A DEB, 56605

Orbit data source: Space-Track

CZ-6A DEB, 56605 is space debris in SSO originally from a launch on Fri, 11 Nov 2022 UTC launched from the Taiyaun Space Center, China (TSC). Debris objects in space refer to the collection of defunct objects orbiting the Earth. Examples of debris include non-operational satellites, rocket bodies, and fragments generated from explosions, collisions, or faulty payload assembly.

Loading next visibility...
Identifier
56605, 2022-151AED
Orbit
SSO
Country
Flag of CNCN / PRC
Related business
Manufacturer
SAST
Mission
Spacecraft
Bus & Motor
Unknown
Mass
Unknown
Launch date (UTC)
2022-11-11 (4 years ago)
Launch vehicle
Unknown
Launch site
Taiyaun Space Center, China (TSC)
Object type
Payload
Rocket body
Debris
Shape & HBR
Unknown shape, 0.1 m
Radar Cross Section
Small (<0.1 m²)

Expand to show TLE details & history
Last TLE update: 2 days ago

TLE from 2 days ago
0 CZ-6A DEB
1 56605U 22151AED 26171.06859295  .00003492  00000-0  11675-2 0  9994
2 56605  98.7647 207.3943 0003161 156.3464 203.7868 14.38073096175607
Epoch: 2026-06-20T01:38Z
TLE epoch observation values (Epoch: 2026-06-20T01:38:46.430Z)
Latitude
-0.00006°
Longitude
-85.58767°
Altitude
769.876 km
Speed
7.468 km/s
True Right ascension
13h 49m 34s
True Declination
0° 00' 00"
Sunlit
Object was in daylight at epoch
Visualization orbit readout
Latitude
Unknown
Longitude
Unknown
Altitude
Unknown
Speed
Unknown
Apparent Right ascension
Unknown
Apparent Declination
Unknown
Sunlit
N/A
Visualization observer readout
Local Sidereal Time
21:32:58
Azimuth
Unknown
Elevation
Unknown
Doppler factor
Unknown
Orbital elements
Apogee altitude
764.266 km
Perigee altitude
759.752 km
Semi-major axis
7,140.146 km
Eccentricity
0.00032
Inclination
98.7647°
RAAN
207.3943°
Arg. of periapsis
156.3464°
True anomaly
203.7722°
Mean anomaly
203.7868°
Eccentric anomaly
203.7795°
Mean motion
3.59735 °/min
Orbital period
100.07 mins
BSTAR
0.0011675
Loading maneuver chart data...
Computing Atmospheric mass density...
Loading historical data...
Loading historical data...
Loading historical data...
Loading historical data...
Loading historical data...
Loading historical data...
Loading historical data...

Documentation

Showing up to 5 results
|